[keps] orb09085.2l.amsat
Ray Hoad
r.hoad at att.net
Thu Mar 26 15:30:44 PDT 2009
SB KEPS @ AMSAT $ORB09085.N
2Line Orbital Elements 09085.AMSAT
HR AMSAT ORBITAL ELEMENTS FOR AMATEUR SATELLITES IN NASA FORMAT
FROM WA5QGD FORT WORTH,TX March 26, 2009
Send Subscribe/unsubscribe to KEPS at
http://www.amsat.org/mailman/listinfo/keps
BID: ORB09085.N
DECODE 2-LINE ELSETS WITH THE FOLLOWING KEY:
1 AAAAAU 00 0 0 BBBBB.BBBBBBBB .CCCCCCCC 00000-0 00000-0 0 DDDZ
2 AAAAA EEE.EEEE FFF.FFFF GGGGGGG HHH.HHHH III.IIII JJ.JJJJJJJJKKKKKZ
KEY: A-CATALOGNUM B-EPOCHTIME C-DECAY D-ELSETNUM E-INCLINATION F-RAAN
G-ECCENTRICITY H-ARGPERIGEE I-MNANOM J-MNMOTION K-ORBITNUM Z-CHECKSUM
TO ALL RADIO AMATEURS BT
AO-07
1 07530U 74089B 09085.48917308 -.00000027 00000-0 10000-3 0 4354
2 07530 101.4351 113.1799 0012083 071.2498 288.9888 12.53575422572357
AO-10
1 14129U 83058B 09084.21263345 -.00000381 00000-0 10000-3 0 6363
2 14129 025.9627 165.1988 5983618 208.6717 098.3335 02.05871534193895
UO-11
1 14781U 84021B 09084.63394756 .00000332 00000-0 51379-4 0 09201
2 14781 098.1171 128.3078 0008040 245.6597 114.3761 14.79702343345475
RS-15
1 23439U 94085A 09084.96447069 -.00000039 00000-0 10000-3 0 01969
2 23439 064.8131 039.3921 0146577 067.6634 293.9748 11.27553267586735
FO-29
1 24278U 96046B 09085.54575694 -.00000107 00000-0 -72101-4 0 47
2 24278 098.5652 330.6426 0350398 204.3554 154.0666 13.52942088622577
SO-33
1 25509U 98061B 09084.59847366 .00000043 00000-0 -38284-5 0 4166
2 25509 031.4337 165.1543 0355063 327.6082 030.3194 14.28246298543872
AO-40
1 26609U 00072B 09085.02556956 -.00000324 00000-0 10000-3 0 2056
2 26609 009.0132 026.5737 7956986 188.2915 137.1619 01.25585175 38585
RS-22
1 27939U 03042A 09084.70777202 .00000057 00000-0 19820-4 0 07491
2 27939 097.9573 322.5603 0014432 039.1044 321.1197 14.63302864293362
VO-52
1 28650U 05017B 09084.84394956 -.00000138 00000-0 -10874-4 0 01881
2 28650 097.7505 149.1491 0026264 303.4523 056.4130 14.81563845210305
PO-63
1 29712U 07001D 09085.22546733 .00000516 00000-0 74108-4 0 3443
2 29712 097.8377 143.5870 0014032 180.3660 179.7544 14.80482195119196
AO-16
1 20439U 90005D 09085.39466014 .00000010 00000-0 19204-4 0 5657
2 20439 098.2700 057.6000 0011887 058.8355 301.3999 14.31819339 1303
LO-19
1 20442U 90005G 09084.48704021 .00000082 00000-0 45634-4 0 4859
2 20442 098.2330 064.3171 0013005 057.3583 302.8893 14.32055914 1335
AO-27
1 22825U 93061C 09085.39836204 -.00000058 00000-0 -61768-5 0 2075
2 22825 098.4273 041.4654 0008866 143.1442 217.0372 14.29261133808083
IO-26
1 22826U 93061D 09085.47311506 .00000022 00000-0 25231-4 0 9281
2 22826 098.4205 042.3221 0009388 139.1974 220.9910 14.29512791808196
GO-32
1 25397U 98043D 09084.61888741 .00000002 00000-0 18853-4 0 08534
2 25397 098.3345 111.4089 0001948 111.8661 248.2736 14.23156405556245
NO-44
1 26931U 01043C 09084.88888789 .00000202 00000-0 11101-3 0 01313
2 26931 067.0513 278.9432 0005158 263.9205 096.1286 14.29552260390679
SO-50
1 27607U 02058C 09085.33910921 .00000223 00000-0 56395-4 0 8456
2 27607 064.5569 276.7131 0075807 223.6419 135.8698 14.71423505336486
CO-55
1 27844U 03031E 09084.53174748 .00000038 00000-0 38021-4 0 5414
2 27844 098.7160 094.8738 0010613 028.9025 331.2736 14.20628248297385
CO-57
1 27848U 03031J 09084.56809806 .00000039 00000-0 38354-4 0 4870
2 27848 098.7174 093.9713 0010489 031.2323 328.9491 14.20431789297356
AO-51
1 28375U 04025K 09084.96671081 .00000002 00000-0 13128-4 0 03484
2 28375 098.0561 099.4125 0085061 018.2022 342.2177 14.40636467248978
CO-56
1 28941U 06005C 09085.44881849 .00068304 39567-5 30300-3 0 9325
2 28941 098.1314 244.9850 0107671 083.3449 278.0161 15.76058065174186
CP3
1 31128U 07012M 09084.15062629 -.00000047 00000-0 00000-0 0 05894
2 31128 097.9979 141.1259 0102764 184.9926 175.0268 14.52027267102704
CP4
1 31132U 07012Q 09085.42826674 .00000234 00000-0 61761-4 0 5676
2 31132 098.0049 145.9325 0085845 170.3750 189.9146 14.55193074102992
CO-65
1 32785U 08021C 09085.45437319 -.00000097 00000-0 -55705-5 0 3241
2 32785 097.9549 150.0737 0014157 303.3313 056.6547 14.81460451 49197
NOAA-10
1 16969U 86073A 09085.30141940 .00000081 00000-0 51200-4 0 5491
2 16969 098.6997 112.3718 0013203 079.8405 280.4266 14.27383026171683
NOAA-11
1 19531U 88089A 09085.32794115 -.00000196 00000-0 -78847-4 0 5617
2 19531 098.7818 176.5644 0011588 348.8598 011.2329 14.14890197 57805
NOAA-12
1 21263U 91032A 09085.49759575 .00000037 00000-0 34405-4 0 522
2 21263 098.7732 093.5164 0012977 029.9141 330.2776 14.25571544928614
MET-3/5
1 21655U 91056A 09085.57082462 .00000051 00000-0 10000-3 0 5756
2 21655 082.5493 264.8644 0014508 031.6281 328.5707 13.17018836846755
MET-2/21
1 22782U 93055A 09085.45186795 .00000047 00000-0 29533-4 0 4149
2 22782 082.5433 247.6311 0021451 216.0644 143.9072 13.83634419786164
OKEAN-4
1 23317U 94066A 09084.68632818 .00000277 00000-0 31356-4 0 08643
2 23317 082.5370 052.4022 0020525 281.5477 078.3460 14.82683744779992
NOAA-14
1 23455U 94089A 09085.43746391 -.00000263 00000-0 -11563-3 0 5604
2 23455 098.9136 163.3937 0010279 068.4178 291.8095 14.13758444734236
NOAA-15
1 25338U 98030A 09085.39545794 -.00000020 00000-0 10085-4 0 8663
2 25338 098.5804 076.4367 0009745 302.3458 057.6787 14.24750880564981
RESURS
1 25394U 98043A 09084.90694049 -.00000024 00000-0 73296-5 0 1732
2 25394 098.3515 121.4599 0002374 085.4781 274.6669 14.24180858556542
FENGYUN1
1 25730U 99025A 09084.92344324 .00000243 00000-0 16750-3 0 07331
2 25730 098.7505 057.5940 0023090 093.5447 266.8363 14.07949128508607
OKEAN-0
1 25860U 99039A 09085.46494778 .00000044 00000-0 13984-4 0 6334
2 25860 097.7796 069.9637 0001836 082.0970 278.0458 14.73564305520966
NOAA-16
1 26536U 00055A 09085.34498960 .00000225 00000-0 14703-3 0 3404
2 26536 099.1766 087.0091 0011079 150.4928 209.6905 14.12514137438605
NOAA-17
1 27453U 02032A 09085.44303338 -.00000052 00000-0 -41661-5 0 3499
2 27453 098.4934 147.3315 0011797 010.5042 349.6376 14.24049937350976
NOAA-18
1 28654U 05018A 09085.45052694 .00000139 00000-0 10166-3 0 8412
2 28654 098.9008 029.3589 0013567 235.2204 124.7669 14.11244910198287
NOAA-19
1 33591U 09005A 09084.84551227 .00000158 00000-0 11196-3 0 00491
2 33591 098.7389 032.8058 0015006 118.0524 242.2183 14.10943845006687
HUBBLE
1 20580U 90037B 09084.91019386 .00000326 00000-0 12306-4 0 3555
2 20580 028.4703 285.6516 0003922 142.8050 217.2803 15.00467226837330
PO-34
1 25520U 98064B 09084.39438283 .00000354 00000-0 76301-5 0 2124
2 25520 028.4599 095.9597 0005353 113.8619 246.2543 15.17312203575910
ISS
1 25544U 98067A 09085.49883102 .00023148 00000-0 17958-3 0 5433
2 25544 051.6423 010.6523 0009893 155.1044 201.9664 15.71652088592938
CO-58
1 28895U 05043F 09084.71318451 -.00000049 00000-0 -73777-6 0 02653
2 28895 098.0710 337.6223 0016867 247.1655 112.7763 14.59751294181557
FALCON
1 30776U 07006E 09085.54192816 .00000389 00000-0 31263-4 0 5326
2 30776 035.4336 240.8184 0002184 301.7300 058.3206 15.03197939112651
MAST
1 31126U 07012K 09084.66865244 .00000009 00000-0 12520-4 0 05589
2 31126 097.9986 143.2628 0094911 178.4659 181.6867 14.53484747102909
CAPE1
1 31130U 07012P 09085.45168551 .00000149 00000-0 45120-4 0 5609
2 31130 097.9979 142.3790 0103041 180.8873 179.2165 14.52042869102689
COMPASS
1 32787U 08021E 09084.35700738 .00000519 00000-0 72893-4 0 03141
2 32787 097.9521 148.8602 0014670 306.8295 053.1574 14.81568273049038
AAUSAT2
1 32788U 08021F 09084.60191362 .00000358 00000-0 52206-4 0 3144
2 32788 097.9504 149.1470 0014811 309.4243 050.5687 14.81687809 49073
DO-64
1 32789U 08021G 09084.68954227 .00000605 00000-0 83683-4 0 03261
2 32789 097.9563 149.3493 0014628 305.6590 054.3246 14.81646846049085
CO-66
1 32791U 08021J 09084.45794008 .00000091 00000-0 18543-4 0 03079
2 32791 097.9545 148.9921 0015308 306.1302 053.8498 14.81402948049011
RS-30
1 32953U 08025A 09084.72196569 .00000010 00000-0 00000 0 0 2648
2 32953 082.5027 308.5291 0019612 003.4929 356.6285 12.43000132 38026
/EX
More information about the Keps
mailing list